Overview Statistics Trail Chart Weather Telemetry Raw packets
 

This is the latest recevied weather packets stored in our database for station/object 4S6DRJ-13. If no packets are shown the sender has not sent any weather packets the latest 10 day(s).

<< 288 289 290 291 292 293 294 >>
Time Temp. Humidity Pressure Rain* Wind** Luminosity Snow
1788045620 27.78° C 84% 1009.3 hPa 0 mm 1.79 m/s, 260° 0 W/m² -
1788045559 27.78° C 84% 1009.2 hPa 0 mm 0 m/s 0 W/m² -
1788045498 27.78° C 84% 1009.3 hPa 0 mm 0.45 m/s, 188° 0 W/m² -
1788045437 27.78° C 84% 1009.3 hPa 0 mm 0.89 m/s, 214° 0 W/m² -
1788045376 27.78° C 84% 1009.3 hPa 0 mm 1.34 m/s, 197° 0 W/m² -
1788045315 27.78° C 84% 1009.2 hPa 0 mm 1.79 m/s, 227° 0 W/m² -
1788045253 27.78° C 84% 1009.1 hPa 0 mm 1.34 m/s, 206° 0 W/m² -
1788045193 27.78° C 84% 1009.2 hPa 0 mm 0.89 m/s, 218° 0 W/m² -
1788045132 27.78° C 84% 1009.3 hPa 0 mm 0.89 m/s, 303° 0 W/m² -
1788045071 27.78° C 83% 1009.3 hPa 0 mm 0.45 m/s, 229° 0 W/m² -
1788045010 27.78° C 83% 1009.3 hPa 0 mm 0.89 m/s, 239° 0 W/m² -
1788044949 27.78° C 83% 1009.4 hPa 0 mm 0.89 m/s, 264° 0 W/m² -
1788044888 27.78° C 83% 1009.2 hPa 0 mm 0.89 m/s, 229° 0 W/m² -
1788044827 27.78° C 83% 1009.2 hPa 0 mm 0.89 m/s, 213° 0 W/m² -
1788044766 27.78° C 83% 1009.3 hPa 0 mm 1.34 m/s, 226° 0 W/m² -
1788044705 27.78° C 83% 1009.1 hPa 0 mm 2.68 m/s, 200° 0 W/m² -
1788044644 27.78° C 83% 1009.1 hPa 0 mm 0.89 m/s, 184° 0 W/m² -
1788044583 27.78° C 83% 1009.4 hPa 0 mm 1.79 m/s, 235° 0 W/m² -
1788044522 27.78° C 84% 1009.2 hPa 0 mm 2.24 m/s, 204° 0 W/m² -
1788044461 27.78° C 84% 1009.3 hPa 0 mm 1.79 m/s, 228° 0 W/m² -
1788044400 27.78° C 84% 1009.2 hPa 0 mm 1.34 m/s, 274° 0 W/m² -
1788044339 27.78° C 84% 1009.2 hPa 0 mm 1.79 m/s, 292° 0 W/m² -
1788044278 27.78° C 84% 1009.3 hPa 0 mm 0.89 m/s, 239° 0 W/m² -
1788044217 27.78° C 84% 1009 hPa 0 mm 1.79 m/s, 223° 0 W/m² -
1788044156 27.78° C 84% 1009.1 hPa 0 mm 0.89 m/s, 277° 0 W/m² -

* Rain latest hour (hover to see other rain measurements)
** Current wind speed in m/s (hover to see current wind gust speed)